| time (UTC) | temp C | wind direction | speed KPH | gust KPH | rain 1hr cm | rain 24hr cm | rain mn cm | humidity % | barometer mb |
| 20260506200304 | 10 | 22 | 0.0 | 4.8 | 0.00 | 0.05 | 0.05 | 77 | 1012.7 |
| 20260506190304 | 11 | 78 | 1.6 | 12.9 | 0.00 | 0.05 | 0.05 | 75 | 1012.2 |
| 20260506180303 | 11 | 89 | 4.8 | 19.3 | 0.00 | 0.05 | 0.05 | 76 | 1011.7 |
| 20260506170804 | 11 | 3 | 3.2 | 8.0 | 0.00 | 0.05 | 0.05 | 79 | 1011.1 |
| 20260506150804 | 12 | 48 | 4.8 | 12.9 | 0.00 | 0.05 | 0.05 | 71 | 1010.9 |
| 20260506140303 | 13 | 74 | 4.8 | 19.3 | 0.00 | 0.05 | 0.05 | 67 | 1010.5 |
| 20260506120304 | 14 | 59 | 3.2 | 22.5 | 0.00 | 0.05 | 0.05 | 66 | 1009.8 |
| 20260506110804 | 14 | 83 | 6.4 | 14.5 | 0.00 | 0.05 | 0.05 | 67 | 1009.8 |
| 20260506100804 | 15 | 80 | 4.8 | 11.3 | 0.00 | 0.05 | 0.05 | 72 | 1009.6 |
| 20260506100304 | 15 | 91 | 3.2 | 25.7 | 0.00 | 0.05 | 0.05 | 73 | 1009.5 |
| 20260506080804 | 11 | 32 | 1.6 | 8.0 | 0.00 | 0.05 | 0.05 | 93 | 1009.1 |
| 20260506080303 | 11 | 0 | 3.2 | 12.9 | 0.00 | 0.05 | 0.05 | 94 | 1009.1 |
| 20260506070804 | 10 | 352 | 3.2 | 11.3 | 0.00 | 0.05 | 0.05 | 96 | 1009.0 |
| 20260506050803 | 8 | 3 | 1.6 | 8.0 | 0.00 | 0.05 | 0.03 | 95 | 1008.8 |
| 20260506050304 | 8 | 32 | 1.6 | 11.3 | 0.00 | 0.05 | 0.03 | 95 | 1008.8 |
| 20260506030803 | 8 | 351 | 3.2 | 9.7 | 0.00 | 0.03 | 0.00 | 94 | 1009.0 |
| 20260506030304 | 8 | 9 | 4.8 | 16.1 | 0.00 | 0.03 | 0.00 | 94 | 1009.0 |
| 20260506010803 | 9 | 15 | 3.2 | 4.8 | 0.00 | 0.03 | 0.00 | 88 | 1009.3 |
| 20260506010304 | 9 | 5 | 3.2 | 12.9 | 0.00 | 0.03 | 0.00 | 88 | 1009.3 |
| 20260506000304 | 10 | 21 | 4.8 | 16.1 | 0.00 | 0.05 | 0.00 | 86 | 1009.8 |
| 20260505230805 | 10 | 66 | 3.2 | 19.3 | 0.00 | 0.23 | 0.00 | 86 | 1009.9 |